TimePST,TemperatureF,Dew PointF,Humidity,Sea Level PressureIn,VisibilityMPH,Wind Direction,Wind SpeedMPH,Gust SpeedMPH,PrecipitationIn,Events,Conditions,WindDirDegrees,DateUTC
12:03 AM,28.4,26.6,93,29.89,0.5,SW,11.5,-,0.00,Fog,Light Freezing Fog,220,2013-03-07 08:03:00
12:23 AM,28.4,26.6,93,29.90,0.2,SSW,11.5,-,0.00,Fog,Light Freezing Fog,210,2013-03-07 08:23:00
12:56 AM,28.9,27.0,92,29.98,0.2,South,6.9,-,0.00,Fog-Snow,Light Snow,190,2013-03-07 08:56:00
1:05 AM,28.4,26.6,93,29.90,0.5,South,6.9,-,0.00,Fog,Light Freezing Fog,190,2013-03-07 09:05:00
1:18 AM,28.4,26.6,93,29.90,0.2,SSW,8.1,-,0.00,Fog,Light Freezing Fog,210,2013-03-07 09:18:00
1:45 AM,28.4,26.6,93,29.90,1.0,South,8.1,-,0.00,,Mist,190,2013-03-07 09:45:00
1:47 AM,28.4,26.6,93,29.90,2.5,SSW,8.1,-,0.00,,Mostly Cloudy,200,2013-03-07 09:47:00
1:53 AM,28.4,26.6,93,29.90,1.2,South,6.9,-,0.00,,Mostly Cloudy,180,2013-03-07 09:53:00
1:56 AM,28.9,27.0,92,29.97,0.5,South,6.9,-,0.00,Fog,Light Freezing Fog,180,2013-03-07 09:56:00
2:06 AM,28.4,26.6,93,29.90,0.2,South,8.1,-,N/A,Fog,Light Freezing Fog,170,2013-03-07 10:06:00
2:21 AM,28.4,26.6,93,29.90,1.0,SSE,6.9,-,N/A,,Mist,150,2013-03-07 10:21:00
2:23 AM,28.4,26.6,93,29.90,2.5,SSE,8.1,-,N/A,,Mostly Cloudy,150,2013-03-07 10:23:00
2:27 AM,28.4,26.6,93,29.90,10.0,SE,8.1,-,N/A,,Scattered Clouds,140,2013-03-07 10:27:00
2:56 AM,28.0,26.1,92,29.97,10.0,SE,8.1,-,N/A,,Clear,140,2013-03-07 10:56:00
3:56 AM,28.0,26.1,92,29.97,10.0,SE,9.2,-,N/A,,Clear,140,2013-03-07 11:56:00
4:56 AM,28.9,26.1,89,29.97,10.0,SSE,10.4,-,N/A,,Clear,150,2013-03-07 12:56:00
5:56 AM,28.0,26.1,92,29.98,10.0,SE,9.2,-,N/A,,Clear,130,2013-03-07 13:56:00
6:56 AM,28.0,25.0,88,29.99,10.0,ESE,8.1,-,N/A,,Clear,120,2013-03-07 14:56:00
7:56 AM,28.9,27.0,92,29.99,10.0,ESE,10.4,-,0.00,,Clear,120,2013-03-07 15:56:00
8:56 AM,30.9,30.0,96,29.99,10.0,ESE,9.2,-,N/A,,Clear,110,2013-03-07 16:56:00
9:56 AM,32.0,30.9,96,29.99,10.0,ESE,9.2,-,N/A,,Clear,110,2013-03-07 17:56:00
10:43 AM,33.8,32.0,93,29.91,10.0,ESE,8.1,-,N/A,,Partly Cloudy,120,2013-03-07 18:43:00
10:56 AM,34.0,33.1,96,29.99,10.0,ESE,6.9,-,N/A,,Partly Cloudy,120,2013-03-07 18:56:00
11:56 AM,35.1,33.1,92,29.99,10.0,ESE,8.1,-,N/A,,Partly Cloudy,120,2013-03-07 19:56:00
12:56 PM,36.0,33.1,89,29.97,10.0,Variable,3.5,-,N/A,,Scattered Clouds,0,2013-03-07 20:56:00
1:19 PM,37.4,32.0,81,29.90,10.0,South,4.6,-,N/A,,Mostly Cloudy,170,2013-03-07 21:19:00
1:36 PM,37.4,33.8,87,29.90,10.0,South,3.5,-,N/A,,Mostly Cloudy,170,2013-03-07 21:36:00
1:53 PM,37.4,30.2,75,29.90,10.0,WSW,3.5,-,N/A,,Overcast,250,2013-03-07 21:53:00
1:56 PM,37.0,30.9,79,29.96,10.0,SSW,3.5,-,N/A,,Overcast,210,2013-03-07 21:56:00
2:04 PM,35.6,30.2,81,29.90,10.0,SW,3.5,-,N/A,,Overcast,220,2013-03-07 22:04:00
2:56 PM,37.0,32.0,82,29.96,10.0,West,4.6,-,N/A,,Mostly Cloudy,270,2013-03-07 22:56:00
3:06 PM,35.6,30.2,81,29.90,10.0,NW,4.6,-,N/A,,Scattered Clouds,320,2013-03-07 23:06:00
3:56 PM,36.0,28.9,76,29.97,10.0,WNW,5.8,-,N/A,,Clear,300,2013-03-07 23:56:00
4:56 PM,36.0,27.0,70,29.97,10.0,Variable,4.6,-,N/A,,Clear,0,2013-03-08 00:56:00
5:56 PM,32.0,28.0,85,29.99,10.0,NNW,4.6,-,N/A,,Clear,330,2013-03-08 01:56:00
6:56 PM,30.9,28.9,92,30.00,10.0,NNW,4.6,-,N/A,,Clear,340,2013-03-08 02:56:00
7:56 PM,33.1,26.1,75,30.00,10.0,North,11.5,-,N/A,,Clear,10,2013-03-08 03:56:00
8:56 PM,30.9,27.0,85,30.00,10.0,North,10.4,-,N/A,,Clear,360,2013-03-08 04:56:00
9:56 PM,32.0,26.1,79,30.00,10.0,North,11.5,-,N/A,,Clear,10,2013-03-08 05:56:00
10:56 PM,32.0,25.0,75,29.98,10.0,Calm,Calm,-,N/A,,Clear,0,2013-03-08 06:56:00
11:56 PM,32.0,25.0,75,29.97,10.0,SE,4.6,-,N/A,,Clear,140,2013-03-08 07:56:00